Time,TemperatureF,DewpointF,PressureIn,WindDirection,WindDirectionDegrees,WindSpeedMPH,WindSpeedGustMPH,Humidity,HourlyPrecipIn,Conditions,Clouds,dailyrainin,SoftwareType,DateUTC
2013-04-19 00:12:00,39.1,3.0,30.17,North,11,2.0,8.0,22,0.00,,,0.00,weatherlink.com 1.10,2013-04-19 06:12:00,
2013-04-19 00:27:00,38.4,3.0,30.17,North,5,1.0,7.0,23,0.00,,,0.00,weatherlink.com 1.10,2013-04-19 06:27:00,
2013-04-19 00:42:00,37.8,3.0,30.17,North,350,6.0,6.0,23,0.00,,,0.00,weatherlink.com 1.10,2013-04-19 06:42:00,
2013-04-19 00:57:00,37.7,4.0,30.18,NNW,348,1.0,6.0,24,0.00,,,0.00,weatherlink.com 1.10,2013-04-19 06:57:00,
2013-04-19 01:12:00,37.2,3.0,30.18,NNW,337,2.0,5.0,24,0.00,,,0.00,weatherlink.com 1.10,2013-04-19 07:12:00,
2013-04-19 01:27:00,37.1,3.0,30.18,North,355,1.0,6.0,24,0.00,,,0.00,weatherlink.com 1.10,2013-04-19 07:27:00,
2013-04-19 01:42:00,37.1,3.0,30.18,North,350,0.0,9.0,24,0.00,,,0.00,weatherlink.com 1.10,2013-04-19 07:42:00,
2013-04-19 01:57:00,36.6,4.0,30.19,North,9,0.0,5.0,25,0.00,,,0.00,weatherlink.com 1.10,2013-04-19 07:57:00,
2013-04-19 02:12:00,36.1,4.0,30.19,NNW,332,3.0,3.0,26,0.00,,,0.00,weatherlink.com 1.10,2013-04-19 08:12:00,
2013-04-19 02:27:00,36.2,4.0,30.18,NW,322,7.0,8.0,26,0.00,,,0.00,weatherlink.com 1.10,2013-04-19 08:27:00,
2013-04-19 02:42:00,36.1,3.0,30.19,NNW,327,2.0,8.0,25,0.00,,,0.00,weatherlink.com 1.10,2013-04-19 08:42:00,
2013-04-19 02:57:00,35.2,4.0,30.19,NW,316,2.0,4.0,27,0.00,,,0.00,weatherlink.com 1.10,2013-04-19 08:57:00,
2013-04-19 03:12:00,34.6,4.0,30.19,NW,317,0.0,2.0,27,0.00,,,0.00,weatherlink.com 1.10,2013-04-19 09:12:00,
2013-04-19 03:28:00,33.6,4.0,30.20,NW,317,0.0,1.0,29,0.00,,,0.00,weatherlink.com 1.10,2013-04-19 09:28:00,
2013-04-19 03:43:00,33.4,4.0,30.20,WNW,302,0.0,4.0,29,0.00,,,0.00,weatherlink.com 1.10,2013-04-19 09:43:00,
2013-04-19 03:58:00,32.8,4.0,30.20,WNW,302,0.0,0.0,30,0.00,,,0.00,weatherlink.com 1.10,2013-04-19 09:58:00,
2013-04-19 04:13:00,30.8,6.0,30.21,WNW,302,0.0,0.0,35,0.00,,,0.00,weatherlink.com 1.10,2013-04-19 10:13:00,
2013-04-19 04:28:00,29.9,5.0,30.20,NNE,19,0.0,2.0,34,0.00,,,0.00,weatherlink.com 1.10,2013-04-19 10:28:00,
2013-04-19 04:43:00,29.3,3.0,30.21,NNE,19,0.0,0.0,32,0.00,,,0.00,weatherlink.com 1.10,2013-04-19 10:43:00,
2013-04-19 04:58:00,28.8,4.0,30.21,NNE,19,0.0,0.0,35,0.00,,,0.00,weatherlink.com 1.10,2013-04-19 10:58:00,
2013-04-19 05:13:00,28.1,5.0,30.22,NNE,19,0.0,0.0,37,0.00,,,0.00,weatherlink.com 1.10,2013-04-19 11:13:00,
2013-04-19 05:28:00,27.6,6.0,30.21,NNE,19,0.0,0.0,40,0.00,,,0.00,weatherlink.com 1.10,2013-04-19 11:28:00,
2013-04-19 05:43:00,28.1,6.0,30.22,NNE,19,0.0,0.0,39,0.00,,,0.00,weatherlink.com 1.10,2013-04-19 11:43:00,
2013-04-19 05:58:00,27.7,6.0,30.22,NNE,19,0.0,0.0,39,0.00,,,0.00,weatherlink.com 1.10,2013-04-19 11:58:00,
2013-04-19 06:13:00,27.2,3.0,30.23,NNE,19,0.0,1.0,36,0.00,,,0.00,weatherlink.com 1.10,2013-04-19 12:13:00,
2013-04-19 06:28:00,27.1,5.0,30.24,NNE,19,0.0,0.0,39,0.00,,,0.00,weatherlink.com 1.10,2013-04-19 12:28:00,
2013-04-19 06:43:00,26.5,6.0,30.24,NNE,19,0.0,0.0,42,0.00,,,0.00,weatherlink.com 1.10,2013-04-19 12:43:00,
2013-04-19 06:58:00,26.2,5.0,30.24,NE,46,0.0,0.0,41,0.00,,,0.00,weatherlink.com 1.10,2013-04-19 12:58:00,
2013-04-19 07:13:00,27.2,5.0,30.25,NNW,328,0.0,0.0,39,0.00,,,0.00,weatherlink.com 1.10,2013-04-19 13:13:00,
2013-04-19 07:28:00,31.0,7.0,30.25,NNW,328,0.0,0.0,36,0.00,,,0.00,weatherlink.com 1.10,2013-04-19 13:28:00,
2013-04-19 07:43:00,34.0,5.0,30.25,North,9,2.0,3.0,29,0.00,,,0.00,weatherlink.com 1.10,2013-04-19 13:43:00,
2013-04-19 07:58:00,35.3,4.0,30.26,North,360,0.0,5.0,27,0.00,,,0.00,weatherlink.com 1.10,2013-04-19 13:58:00,
2013-04-19 08:13:00,36.4,4.0,30.26,North,9,2.0,7.0,25,0.00,,,0.00,weatherlink.com 1.10,2013-04-19 14:13:00,
2013-04-19 08:28:00,37.9,4.0,30.26,North,10,1.0,8.0,24,0.00,,,0.00,weatherlink.com 1.10,2013-04-19 14:28:00,
2013-04-19 08:43:00,38.9,4.0,30.25,North,5,3.0,3.0,23,0.00,,,0.00,weatherlink.com 1.10,2013-04-19 14:43:00,
2013-04-19 08:58:00,39.0,4.0,30.25,NW,321,6.0,7.0,23,0.00,,,0.00,weatherlink.com 1.10,2013-04-19 14:58:00,
2013-04-19 09:13:00,40.5,4.0,30.25,North,355,5.0,7.0,22,0.00,,,0.00,weatherlink.com 1.10,2013-04-19 15:13:00,
2013-04-19 09:28:00,40.5,3.0,30.25,NNE,20,4.0,6.0,21,0.00,,,0.00,weatherlink.com 1.10,2013-04-19 15:28:00,
2013-04-19 09:43:00,42.2,4.0,30.25,North,350,2.0,8.0,20,0.00,,,0.00,weatherlink.com 1.10,2013-04-19 15:43:00,
2013-04-19 09:58:00,42.2,4.0,30.25,NW,307,0.0,9.0,20,0.00,,,0.00,weatherlink.com 1.10,2013-04-19 15:58:00,
2013-04-19 10:13:00,43.5,4.0,30.25,NNW,348,2.0,7.0,19,0.00,,,0.00,weatherlink.com 1.10,2013-04-19 16:13:00,
2013-04-19 10:28:00,43.8,4.0,30.23,NW,309,0.0,7.0,19,0.00,,,0.00,weatherlink.com 1.10,2013-04-19 16:28:00,
2013-04-19 10:43:00,44.5,3.0,30.23,NNE,28,0.0,7.0,18,0.00,,,0.00,weatherlink.com 1.10,2013-04-19 16:43:00,
2013-04-19 10:58:00,45.2,3.0,30.23,NE,49,0.0,6.0,17,0.00,,,0.00,weatherlink.com 1.10,2013-04-19 16:58:00,
2013-04-19 11:14:00,46.9,4.0,30.22,SW,217,0.0,5.0,17,0.00,,,0.00,weatherlink.com 1.10,2013-04-19 17:14:00,
2013-04-19 11:29:00,47.0,3.0,30.21,WSW,240,2.0,9.0,16,0.00,,,0.00,weatherlink.com 1.10,2013-04-19 17:29:00,
2013-04-19 11:44:00,47.9,2.0,30.20,SSW,209,0.0,5.0,15,0.00,,,0.00,weatherlink.com 1.10,2013-04-19 17:44:00,
2013-04-19 11:59:00,49.1,4.0,30.18,SW,219,0.0,3.0,16,0.00,,,0.00,weatherlink.com 1.10,2013-04-19 17:59:00,
2013-04-19 12:14:00,50.2,2.0,30.18,SSW,207,0.0,6.0,14,0.00,,,0.00,weatherlink.com 1.10,2013-04-19 18:14:00,
2013-04-19 12:29:00,51.1,3.0,30.17,SW,229,0.0,5.0,14,0.00,,,0.00,weatherlink.com 1.10,2013-04-19 18:29:00,
2013-04-19 12:44:00,51.0,5.0,30.16,SW,222,0.0,7.0,15,0.00,,,0.00,weatherlink.com 1.10,2013-04-19 18:44:00,
2013-04-19 12:59:00,53.0,3.0,30.16,WSW,243,9.0,9.0,13,0.00,,,0.00,weatherlink.com 1.10,2013-04-19 18:59:00,
2013-04-19 13:14:00,53.5,4.0,30.14,NW,321,0.0,6.0,13,0.00,,,0.00,weatherlink.com 1.10,2013-04-19 19:14:00,
2013-04-19 13:29:00,54.8,3.0,30.14,WSW,248,0.0,9.0,12,0.00,,,0.00,weatherlink.com 1.10,2013-04-19 19:29:00,
2013-04-19 13:44:00,55.0,3.0,30.12,SSW,201,5.0,11.0,12,0.00,,,0.00,weatherlink.com 1.10,2013-04-19 19:44:00,
2013-04-19 13:59:00,56.4,4.0,30.11,SW,217,0.0,3.0,12,0.00,,,0.00,weatherlink.com 1.10,2013-04-19 19:59:00,
2013-04-19 14:14:00,56.8,3.0,30.11,WNW,290,0.0,9.0,11,0.00,,,0.00,weatherlink.com 1.10,2013-04-19 20:14:00,
2013-04-19 14:29:00,57.3,3.0,30.09,WNW,298,2.0,7.0,11,0.00,,,0.00,weatherlink.com 1.10,2013-04-19 20:29:00,
2013-04-19 14:44:00,58.5,4.0,30.08,South,189,5.0,7.0,11,0.00,,,0.00,weatherlink.com 1.10,2013-04-19 20:44:00,
2013-04-19 14:59:00,59.5,3.0,30.07,WNW,298,0.0,11.0,10,0.00,,,0.00,weatherlink.com 1.10,2013-04-19 20:59:00,
2013-04-19 15:14:00,59.1,0.0,30.05,WSW,246,5.0,13.0,9,0.00,,,0.00,weatherlink.com 1.10,2013-04-19 21:14:00,
2013-04-19 15:29:00,61.1,2.0,30.04,South,189,3.0,11.0,9,0.00,,,0.00,weatherlink.com 1.10,2013-04-19 21:29:00,
2013-04-19 15:44:00,61.4,2.0,30.02,West,280,3.0,11.0,9,0.00,,,0.00,weatherlink.com 1.10,2013-04-19 21:44:00,
2013-04-19 15:59:00,61.9,0.0,30.00,SSW,203,2.0,10.0,8,0.00,,,0.00,weatherlink.com 1.10,2013-04-19 21:59:00,
2013-04-19 16:15:00,61.4,-1.0,29.99,West,260,1.0,9.0,8,0.00,,,0.00,weatherlink.com 1.10,2013-04-19 22:15:00,
2013-04-19 16:30:00,62.8,-3.0,29.98,WSW,245,5.0,7.0,7,0.00,,,0.00,weatherlink.com 1.10,2013-04-19 22:30:00,
2013-04-19 16:45:00,63.3,-2.0,29.97,NW,326,5.0,6.0,7,0.00,,,0.00,weatherlink.com 1.10,2013-04-19 22:45:00,
2013-04-19 17:00:00,63.6,-2.0,29.96,SSW,197,4.0,8.0,7,0.00,,,0.00,weatherlink.com 1.10,2013-04-19 23:00:00,
2013-04-19 17:15:00,63.9,-2.0,29.96,SW,225,0.0,4.0,7,0.00,,,0.00,weatherlink.com 1.10,2013-04-19 23:15:00,
2013-04-19 17:30:00,63.3,-2.0,29.95,SSE,168,1.0,7.0,7,0.00,,,0.00,weatherlink.com 1.10,2013-04-19 23:30:00,
2013-04-19 17:45:00,64.1,-5.0,29.94,SSW,202,0.0,5.0,6,0.00,,,0.00,weatherlink.com 1.10,2013-04-19 23:45:00,
2013-04-19 18:00:00,64.3,-5.0,29.93,SW,221,0.0,6.0,6,0.00,,,0.00,weatherlink.com 1.10,2013-04-20 00:00:00,
2013-04-19 18:15:00,63.6,-5.0,29.92,SW,224,1.0,8.0,6,0.00,,,0.00,weatherlink.com 1.10,2013-04-20 00:15:00,
2013-04-19 18:30:00,63.1,-2.0,29.92,SSW,201,0.0,7.0,7,0.00,,,0.00,weatherlink.com 1.10,2013-04-20 00:30:00,
2013-04-19 18:45:00,62.2,-3.0,29.91,South,180,3.0,10.0,7,0.00,,,0.00,weatherlink.com 1.10,2013-04-20 00:45:00,
2013-04-19 19:00:00,61.9,0.0,29.91,South,175,5.0,9.0,8,0.00,,,0.00,weatherlink.com 1.10,2013-04-20 01:00:00,
2013-04-19 19:15:00,60.3,-2.0,29.91,South,182,1.0,7.0,8,0.00,,,0.00,weatherlink.com 1.10,2013-04-20 01:15:00,
2013-04-19 19:31:00,58.8,-3.0,29.90,South,190,3.0,9.0,8,0.00,,,0.00,weatherlink.com 1.10,2013-04-20 01:31:00,
2013-04-19 19:46:00,57.8,-4.0,29.90,South,169,1.0,6.0,8,0.00,,,0.00,weatherlink.com 1.10,2013-04-20 01:46:00,
2013-04-19 20:01:00,56.7,-2.0,29.90,South,169,0.0,1.0,9,0.00,,,0.00,weatherlink.com 1.10,2013-04-20 02:01:00,
2013-04-19 20:16:00,55.3,-1.0,29.90,South,169,0.0,0.0,10,0.00,,,0.00,weatherlink.com 1.10,2013-04-20 02:16:00,
2013-04-19 20:31:00,53.7,4.0,29.90,South,169,0.0,0.0,13,0.00,,,0.00,weatherlink.com 1.10,2013-04-20 02:31:00,
2013-04-19 20:46:00,52.4,-1.0,29.90,South,169,0.0,0.0,11,0.00,,,0.00,weatherlink.com 1.10,2013-04-20 02:46:00,
2013-04-19 21:01:00,51.1,3.0,29.90,South,169,0.0,0.0,14,0.00,,,0.00,weatherlink.com 1.10,2013-04-20 03:01:00,
2013-04-19 21:16:00,50.6,3.0,29.90,South,169,0.0,1.0,14,0.00,,,0.00,weatherlink.com 1.10,2013-04-20 03:16:00,
2013-04-19 21:31:00,49.7,1.0,29.90,South,169,1.0,1.0,13,0.00,,,0.00,weatherlink.com 1.10,2013-04-20 03:31:00,
2013-04-19 21:46:00,49.5,0.0,29.90,South,169,1.0,2.0,13,0.00,,,0.00,weatherlink.com 1.10,2013-04-20 03:46:00,
2013-04-19 22:01:00,50.3,-5.0,29.90,SSE,163,1.0,5.0,10,0.00,,,0.00,weatherlink.com 1.10,2013-04-20 04:01:00,
2013-04-19 22:16:00,50.2,-7.0,29.90,SE,131,0.0,5.0,9,0.00,,,0.00,weatherlink.com 1.10,2013-04-20 04:16:00,
2013-04-19 22:31:00,49.9,-5.0,29.89,SE,134,0.0,1.0,10,0.00,,,0.00,weatherlink.com 1.10,2013-04-20 04:31:00,
2013-04-19 22:46:00,50.1,-7.0,29.90,South,175,0.0,1.0,9,0.00,,,0.00,weatherlink.com 1.10,2013-04-20 04:46:00,
2013-04-19 23:02:00,49.7,-7.0,29.89,SSE,159,0.0,3.0,9,0.00,,,0.00,weatherlink.com 1.10,2013-04-20 05:02:00,
2013-04-19 23:17:00,50.2,-9.0,29.88,SE,144,0.0,4.0,8,0.00,,,0.00,weatherlink.com 1.10,2013-04-20 05:17:00,
2013-04-19 23:32:00,49.7,-7.0,29.88,SE,142,1.0,4.0,9,0.00,,,0.00,weatherlink.com 1.10,2013-04-20 05:32:00,
2013-04-19 23:47:00,49.6,-7.0,29.88,SE,142,1.0,3.0,9,0.00,,,0.00,weatherlink.com 1.10,2013-04-20 05:47:00,